Hlavní strana
METAR-TAF:

METAR-TAF

Letiště :

Thomaston-Upson County Airport

Thomaston, Georgie, Spojené státy americké

zeměpisná šířka: 32-57-18N, zeměpisná délka: 084-15-52W, výška: 243 m

Aktuální stav počasí

Zpráva byla vytvořena před 34 minutami, v 17:15 UTC
Severoseverovýchodní vítr 8 kt, proměnlivý mezi severním a východoseverovýchodním
Teplota 8°C
Vlhkost vzduchu 100%
Tlak 1019 hPa
Viditelnost: 6.4 km
Zataženo ve výšce 300 ft
mrholení

METAR: KOPN 151715Z AUTO 02008KT 360V060 4SM DZ OVC003 08/08 A3010 RMK AO2

Čas: 12:49 (17:49 UTC)


TAF: chybějící

Stav a předpovědi počasí z více než 4 000 letišť (zprávy METAR a TAF).

Červené a žluté tečky na mapě představují dostupné meteorologické stanice.

Když kurzor umístíte na tečku, zobrazí se název stanice.

Pak kliknutím zobrazíte stav a předpověď počasí.

Chcete-li změnit mapu, kliknutím na zelené tlačítko se znaménkem +mapu přiblížíte, kliknutím na zelené tlačítko se znaménkem – mapu oddálíte a kliknutím na zelené šipky přejdete na sousední mapy.


METAR-TAF: